CT1AKV-10 Estrada Real PT current weather conditions

sailwx.info

Wind from 208 at 2 knots gusting 7

Air temperature 33.9° C
Dewpoint -2.0° C

Last reported at 2015-Aug-31 14:45 UTC.
Time now 2015-Aug-31 15:23 UTC

Location: N 39°11' W 008°44'.
View on Google Maps.

See reports from other nearby stations

  
Tides and Currents Weather Stations Pressure Air Temp Water Temp Dewpoint Dewpoint Depression Visibility Wind Speed Wind Dir Waves Ship Positions
date/time (UTC)wind fromknots sea level pressurealtimeterstation pressurevisibilityair tempwater tempwave heightnotes
2015-Aug-31 14:45 208 2 gusting 7 33.9
2015-Aug-31 14:30 148 1 gusting 9 33.9
2015-Aug-31 14:15 177 1 gusting 8 33.3
2015-Aug-31 14:00 183 2 gusting 9 33.3
2015-Aug-31 13:45 186 2 gusting 9 32.8
2015-Aug-31 13:30 158 1 gusting 7 31.7
2015-Aug-31 13:15 161 2 gusting 6 31.7
2015-Aug-31 13:00 338 2 gusting 8 31.1
2015-Aug-31 12:45 176 1 gusting 6 30.6
2015-Aug-31 12:30 150 1 gusting 6 30.6
2015-Aug-31 12:15 153 1 gusting 6 31.7
2015-Aug-31 12:00 132 0 gusting 7 30.0
2015-Aug-31 11:45 132 0 gusting 6 30.6
2015-Aug-31 11:30 150 0 gusting 6 29.4
2015-Aug-31 11:15 151 0 gusting 4 29.4
2015-Aug-31 11:00 158 1 gusting 6 28.9
2015-Aug-31 10:45 167 0 gusting 6 28.3
2015-Aug-31 10:30 221 27.8
2015-Aug-31 10:15 184 27.8
2015-Aug-31 10:00 176 0 gusting 4 25.6
2015-Aug-31 09:45 189 0 gusting 3 25.0
2015-Aug-31 09:30 150 0 gusting 2 24.4
2015-Aug-31 09:15 194 0 gusting 3 23.9
2015-Aug-31 09:00 172 0 gusting 3 23.3
2015-Aug-31 08:45 214 22.8
2015-Aug-31 08:30 162 22.8
2015-Aug-31 08:15 203 0 gusting 4 22.2
2015-Aug-31 08:00 150 0 gusting 4 22.2
2015-Aug-31 07:45 131 0 gusting 4 21.7
2015-Aug-31 07:30 118 21.1
2015-Aug-31 07:15 132 20.6
2015-Aug-31 07:00 134 20.6
2015-Aug-31 06:45 153 20.6
2015-Aug-31 06:30 20.6
2015-Aug-31 06:15 083 20.6
2015-Aug-31 06:00 046 20.6
2015-Aug-31 05:45 225 0 gusting 2 20.6
2015-Aug-31 05:30 052 20.6
2015-Aug-31 05:15 20.6
2015-Aug-31 05:00 113 20.6
2015-Aug-31 04:45 103 20.6
2015-Aug-31 04:30 20.0
2015-Aug-31 04:15 182 20.0
2015-Aug-31 04:00 195 0 gusting 2 20.0
2015-Aug-31 03:45 211 0 gusting 3 20.0
2015-Aug-31 03:30 211 20.0
2015-Aug-31 03:15 179 20.0
2015-Aug-31 03:00 137 20.6
2015-Aug-31 02:45 160 20.6
2015-Aug-31 02:30 153 20.6
2015-Aug-31 02:15 145 20.6
2015-Aug-31 02:00 149 20.6
2015-Aug-31 01:45 121 20.6
2015-Aug-31 01:30 153 20.6
2015-Aug-31 01:15 20.6
2015-Aug-31 01:00 151 20.6
2015-Aug-31 00:45 133 20.6
2015-Aug-31 00:30 20.6
2015-Aug-31 00:15 20.6
2015-Aug-31 00:00 314 20.6
2015-Aug-30 23:45 20.0
2015-Aug-30 23:30 19.4
2015-Aug-30 23:15 19.4
2015-Aug-30 23:00 356 20.0
2015-Aug-30 22:45 325 20.0
2015-Aug-30 22:30 297 20.0
2015-Aug-30 22:15 300 20.0
2015-Aug-30 22:00 302 20.6
2015-Aug-30 21:45 312 0 gusting 3 20.6
2015-Aug-30 21:30 302 0 gusting 2 20.6
2015-Aug-30 21:15 312 21.1
2015-Aug-30 21:00 318 0 gusting 3 21.1
2015-Aug-30 20:45 314 21.1
2015-Aug-30 20:30 21.1
2015-Aug-30 20:15 21.7
2015-Aug-30 20:00 293 22.2
2015-Aug-30 19:45 290 0 gusting 3 22.8
2015-Aug-30 19:30 272 1 gusting 5 23.3
2015-Aug-30 19:15 297 2 gusting 6 23.9
2015-Aug-30 19:00 296 2 gusting 6 25.0
2015-Aug-30 18:45 291 1 gusting 6 26.1
2015-Aug-30 18:30 296 2 gusting 8 27.8
2015-Aug-30 18:15 276 1 gusting 6 27.8
2015-Aug-30 18:00 214 0 gusting 3 28.3
2015-Aug-30 17:45 192 1 gusting 6 28.3
2015-Aug-30 17:30 232 2 gusting 7 30.0
2015-Aug-30 17:15 157 2 gusting 7 31.1
2015-Aug-30 17:00 188 2 gusting 9 30.6
2015-Aug-30 16:45 212 3 gusting 8 32.8
2015-Aug-30 16:30 186 3 gusting 9 33.3
2015-Aug-30 16:15 174 3 gusting 11 33.9
2015-Aug-30 16:00 272 3 gusting 11 33.9
2015-Aug-30 15:45 214 3 gusting 13 34.4
2015-Aug-30 15:30 172 3 gusting 10 33.9
2015-Aug-29 21:30 310 1 gusting 4 21.7
2015-Aug-29 21:15 318 1 gusting 5 21.7
2015-Aug-29 21:00 299 1 gusting 6 22.2
2015-Aug-29 20:45 304 2 gusting 6 22.2
2015-Aug-29 20:30 284 2 gusting 8 22.8
2015-Aug-29 20:15 303 2 gusting 6 22.8
2015-Aug-29 20:00 292 1 gusting 6 23.3
2015-Aug-29 19:45 308 2 gusting 6 23.9
2015-Aug-29 19:30 307 2 gusting 7 24.4
2015-Aug-29 19:15 278 3 gusting 6 25.6
2015-Aug-29 19:00 290 3 gusting 9 26.7
2015-Aug-29 18:45 295 3 gusting 8 27.2
2015-Aug-29 18:30 298 3 gusting 10 28.3
2015-Aug-29 18:15 254 2 gusting 8 30.0
2015-Aug-29 18:00 279 3 gusting 11 30.6
2015-Aug-29 17:45 315 4 gusting 11 30.0
2015-Aug-29 17:30 289 4 gusting 13 30.6
2015-Aug-29 17:15 295 5 gusting 13 31.1
2015-Aug-29 17:00 295 4 gusting 10 31.7
2015-Aug-29 16:45 302 4 gusting 10 32.8
2015-Aug-29 16:30 314 3 gusting 11 33.9
2015-Aug-29 16:15 317 4 gusting 12 36.7
2015-Aug-29 16:00 265 1 gusting 9 41.1
2015-Aug-29 15:45 173 1 gusting 6 41.1
2015-Aug-29 15:15 082 0 gusting 3 41.1
2015-Aug-29 15:00 227 1 gusting 6 40.6